| time (UTC) | temp C | wind direction | speed KPH | gust KPH | rain 1hr cm | rain 24hr cm | rain mn cm | humidity % | barometer mb |
| 20260507114050 | 10 | 0 | 0.0 | 1.6 | 0.00 | 0.00 | 0.00 | 81 | 1015.2 |
| 20260507113551 | 10 | 315 | 0.0 | 3.2 | 0.00 | 0.00 | 0.00 | 81 | 1015.2 |
| 20260507113130 | 10 | 0 | 0.0 | 3.2 | 0.00 | 0.00 | 0.00 | 81 | 1015.2 |
| 20260507112715 | 10 | 90 | 0.0 | 1.6 | 0.00 | 0.00 | 0.00 | 82 | 1015.2 |
| 20260507112235 | 10 | 0 | 0.0 | 1.6 | 0.00 | 0.00 | 0.00 | 82 | 1015.1 |
| 20260507111745 | 10 | 45 | 0.0 | 3.2 | 0.00 | 0.00 | 0.00 | 82 | 1015.1 |
| 20260507111255 | 10 | 0 | 0.0 | 1.6 | 0.00 | 0.00 | 0.00 | 83 | 1015.1 |
| 20260507110841 | 10 | 90 | 0.0 | 1.6 | 0.00 | 0.00 | 0.00 | 83 | 1015.0 |
| 20260507110425 | 10 | 270 | 0.0 | 1.6 | 0.00 | 0.00 | 0.00 | 83 | 1015.0 |
| 20260507105935 | 10 | 315 | 0.0 | 3.2 | 0.00 | 0.00 | 0.00 | 83 | 1015.0 |
| 20260507105520 | 10 | 90 | 0.0 | 1.6 | 0.00 | 0.00 | 0.00 | 83 | 1015.1 |
| 20260507105040 | 10 | 90 | 0.0 | 1.6 | 0.00 | 0.00 | 0.00 | 83 | 1015.0 |
| 20260507104605 | 10 | 0 | 0.0 | 3.2 | 0.00 | 0.00 | 0.00 | 83 | 1015.0 |
| 20260507104145 | 10 | 0 | 0.0 | 1.6 | 0.00 | 0.00 | 0.00 | 84 | 1015.1 |
| 20260507103740 | 10 | 0 | 0.0 | 1.6 | 0.00 | 0.00 | 0.00 | 83 | 1015.1 |
| 20260507103328 | 10 | 0 | 0.0 | 1.6 | 0.00 | 0.00 | 0.00 | 83 | 1015.0 |
| 20260507102915 | 10 | 0 | 0.0 | 1.6 | 0.00 | 0.00 | 0.00 | 84 | 1015.0 |
| 20260507102421 | 10 | 0 | 0.0 | 1.6 | 0.00 | 0.00 | 0.00 | 83 | 1015.0 |
| 20260507101950 | 10 | 90 | 0.0 | 1.6 | 0.00 | 0.00 | 0.00 | 83 | 1014.9 |
| 20260507101541 | 10 | 270 | 0.0 | 1.6 | 0.00 | 0.00 | 0.00 | 84 | 1014.9 |
| 20260507101140 | 10 | 0 | 0.0 | 3.2 | 0.00 | 0.00 | 0.00 | 83 | 1014.9 |
| 20260507100720 | 10 | 0 | 0.0 | 1.6 | 0.00 | 0.00 | 0.00 | 83 | 1014.9 |
| 20260507100241 | 10 | 0 | 0.0 | 3.2 | 0.00 | 0.00 | 0.00 | 84 | 1014.9 |
| 20260507095805 | 10 | 90 | 0.0 | 3.2 | 0.00 | 0.00 | 0.00 | 85 | 1014.8 |
| 20260507095315 | 9 | 135 | 0.0 | 1.6 | 0.00 | 0.00 | 0.00 | 85 | 1014.8 |
| 20260507094905 | 9 | 0 | 0.0 | 1.6 | 0.00 | 0.00 | 0.00 | 85 | 1014.7 |
| 20260507094405 | 9 | 90 | 0.0 | 1.6 | 0.00 | 0.00 | 0.00 | 85 | 1014.7 |
| 20260507093935 | 9 | 135 | 0.0 | 3.2 | 0.00 | 0.00 | 0.00 | 85 | 1014.8 |
| 20260507093525 | 9 | 45 | 0.0 | 1.6 | 0.00 | 0.00 | 0.00 | 85 | 1014.6 |
| 20260507093121 | 9 | 135 | 0.0 | 1.6 | 0.00 | 0.00 | 0.00 | 85 | 1014.5 |
| 20260507092640 | 9 | 270 | 0.0 | 1.6 | 0.00 | 0.00 | 0.00 | 85 | 1014.5 |
| 20260507092220 | 9 | 180 | 0.0 | 3.2 | 0.00 | 0.00 | 0.00 | 85 | 1014.5 |
| 20260507091810 | 9 | 135 | 0.0 | 1.6 | 0.00 | 0.00 | 0.00 | 86 | 1014.5 |
| 20260507091340 | 9 | 0 | 0.0 | 1.6 | 0.00 | 0.00 | 0.00 | 86 | 1014.4 |
| 20260507090900 | 9 | 270 | 0.0 | 3.2 | 0.00 | 0.00 | 0.00 | 87 | 1014.3 |
| 20260507090435 | 8 | 90 | 0.0 | 3.2 | 0.00 | 0.00 | 0.00 | 87 | 1014.2 |
| 20260507090015 | 8 | 0 | 0.0 | 3.2 | 0.00 | 0.00 | 0.00 | 87 | 1014.2 |
| 20260507085520 | 8 | 90 | 0.0 | 1.6 | 0.00 | 0.00 | 0.00 | 87 | 1014.1 |
| 20260507085025 | 8 | 180 | 0.0 | 3.2 | 0.00 | 0.00 | 0.00 | 87 | 1014.2 |
| 20260507084600 | 8 | 270 | 0.0 | 1.6 | 0.00 | 0.00 | 0.00 | 87 | 1014.1 |
| 20260507084121 | 8 | 135 | 0.0 | 3.2 | 0.00 | 0.00 | 0.00 | 87 | 1014.0 |
| 20260507083705 | 8 | 45 | 0.0 | 3.2 | 0.00 | 0.00 | 0.00 | 87 | 1014.0 |
| 20260507083210 | 8 | 90 | 0.0 | 1.6 | 0.00 | 0.00 | 0.00 | 87 | 1014.0 |
| 20260507082730 | 8 | 45 | 0.0 | 1.6 | 0.00 | 0.00 | 0.00 | 87 | 1013.9 |
| 20260507082250 | 8 | 90 | 0.0 | 3.2 | 0.00 | 0.00 | 0.00 | 87 | 1013.9 |
| 20260507081815 | 8 | 270 | 0.0 | 1.6 | 0.00 | 0.00 | 0.00 | 87 | 1013.8 |
| 20260507081320 | 8 | 45 | 0.0 | 3.2 | 0.00 | 0.00 | 0.00 | 87 | 1013.8 |
| 20260507080855 | 8 | 90 | 0.0 | 1.6 | 0.00 | 0.00 | 0.00 | 88 | 1013.6 |
| 20260507080400 | 8 | 180 | 0.0 | 1.6 | 0.00 | 0.00 | 0.00 | 88 | 1013.7 |
| 20260507075920 | 8 | 180 | 0.0 | 1.6 | 0.00 | 0.00 | 0.00 | 88 | 1013.6 |
| 20260507075445 | 8 | 90 | 0.0 | 3.2 | 0.00 | 0.00 | 0.00 | 88 | 1013.7 |
| 20260507074945 | 8 | 180 | 0.0 | 1.6 | 0.00 | 0.00 | 0.00 | 88 | 1013.6 |
| 20260507074515 | 8 | 90 | 0.0 | 1.6 | 0.00 | 0.00 | 0.00 | 88 | 1013.6 |
| 20260507074045 | 8 | 90 | 0.0 | 1.6 | 0.00 | 0.00 | 0.00 | 88 | 1013.6 |
| 20260507073615 | 8 | 0 | 0.0 | 1.6 | 0.00 | 0.00 | 0.00 | 88 | 1013.4 |
| 20260507073210 | 8 | 180 | 0.0 | 1.6 | 0.00 | 0.00 | 0.00 | 88 | 1013.4 |
| 20260507072732 | 8 | 90 | 0.0 | 0.0 | 0.00 | 0.00 | 0.00 | 88 | 1013.4 |
| 20260507072335 | 8 | 90 | 0.0 | 1.6 | 0.00 | 0.00 | 0.00 | 88 | 1013.3 |
| 20260507071935 | 8 | 90 | 0.0 | 1.6 | 0.00 | 0.00 | 0.00 | 88 | 1013.4 |
| 20260507071451 | 8 | 45 | 0.0 | 1.6 | 0.00 | 0.00 | 0.00 | 88 | 1013.4 |
| 20260507071020 | 8 | 135 | 0.0 | 1.6 | 0.00 | 0.00 | 0.00 | 88 | 1013.3 |
| 20260507070530 | 8 | 90 | 0.0 | 0.0 | 0.00 | 0.00 | 0.00 | 88 | 1013.3 |
| 20260507070041 | 8 | 0 | 0.0 | 1.6 | 0.00 | 0.00 | 0.00 | 88 | 1013.3 |
| 20260507065640 | 8 | 90 | 0.0 | 1.6 | 0.00 | 0.00 | 0.00 | 88 | 1013.2 |
| 20260507065200 | 8 | 0 | 0.0 | 1.6 | 0.00 | 0.00 | 0.00 | 88 | 1013.1 |
| 20260507064715 | 8 | 270 | 0.0 | 0.0 | 0.00 | 0.00 | 0.00 | 88 | 1013.1 |
| 20260507064255 | 8 | 90 | 0.0 | 0.0 | 0.00 | 0.00 | 0.00 | 88 | 1013.1 |
| 20260507063438 | 8 | 0 | 0.0 | 1.6 | 0.00 | 0.00 | 0.00 | 88 | 1013.0 |
| 20260507062958 | 8 | 90 | 0.0 | 1.6 | 0.00 | 0.00 | 0.00 | 88 | 1013.1 |
| 20260507062525 | 8 | 0 | 0.0 | 1.6 | 0.00 | 0.00 | 0.00 | 88 | 1013.1 |
| 20260507062122 | 8 | 0 | 0.0 | 1.6 | 0.00 | 0.00 | 0.00 | 88 | 1013.1 |
| 20260507061704 | 8 | 45 | 0.0 | 3.2 | 0.00 | 0.00 | 0.00 | 88 | 1013.1 |
| 20260507061250 | 8 | 45 | 0.0 | 1.6 | 0.00 | 0.00 | 0.00 | 88 | 1013.0 |
| 20260507060850 | 8 | 90 | 0.0 | 3.2 | 0.00 | 0.00 | 0.00 | 88 | 1012.9 |
| 20260507060425 | 8 | 90 | 0.0 | 1.6 | 0.00 | 0.00 | 0.00 | 88 | 1012.7 |
| 20260507060008 | 8 | 90 | 0.0 | 1.6 | 0.00 | 0.00 | 0.00 | 88 | 1012.7 |
| 20260507055510 | 8 | 90 | 0.0 | 1.6 | 0.00 | 0.00 | 0.00 | 89 | 1012.6 |
| 20260507055105 | 8 | 0 | 0.0 | 1.6 | 0.00 | 0.00 | 0.00 | 89 | 1012.6 |
| 20260507054635 | 8 | 225 | 0.0 | 1.6 | 0.00 | 0.00 | 0.00 | 89 | 1012.6 |
| 20260507054218 | 7 | 90 | 0.0 | 0.0 | 0.00 | 0.00 | 0.00 | 89 | 1012.6 |
| 20260507053805 | 7 | 270 | 0.0 | 1.6 | 0.00 | 0.00 | 0.00 | 89 | 1012.4 |
| 20260507053310 | 7 | 135 | 0.0 | 1.6 | 0.00 | 0.00 | 0.00 | 89 | 1012.3 |
| 20260507052818 | 7 | 90 | 0.0 | 0.0 | 0.00 | 0.00 | 0.00 | 89 | 1012.2 |
| 20260507052400 | 7 | 90 | 0.0 | 3.2 | 0.00 | 0.00 | 0.00 | 89 | 1012.2 |
| 20260507051915 | 7 | 90 | 0.0 | 1.6 | 0.00 | 0.00 | 0.00 | 89 | 1012.3 |
| 20260507051424 | 7 | 315 | 0.0 | 1.6 | 0.00 | 0.00 | 0.00 | 89 | 1012.3 |
| 20260507050938 | 7 | 90 | 0.0 | 1.6 | 0.00 | 0.00 | 0.00 | 89 | 1012.1 |
| 20260507050500 | 7 | 180 | 0.0 | 3.2 | 0.00 | 0.00 | 0.00 | 90 | 1012.1 |
| 20260507050045 | 7 | 45 | 0.0 | 3.2 | 0.00 | 0.00 | 0.00 | 90 | 1012.1 |
| 20260507045558 | 7 | 0 | 0.0 | 3.2 | 0.00 | 0.00 | 0.00 | 90 | 1012.0 |
| 20260507045115 | 7 | 90 | 0.0 | 1.6 | 0.00 | 0.00 | 0.00 | 90 | 1011.9 |
| 20260507044630 | 8 | 0 | 0.0 | 1.6 | 0.00 | 0.00 | 0.00 | 90 | 1011.8 |
| 20260507044205 | 7 | 270 | 0.0 | 1.6 | 0.00 | 0.00 | 0.00 | 90 | 1011.8 |
| 20260507043710 | 7 | 270 | 0.0 | 1.6 | 0.00 | 0.00 | 0.00 | 90 | 1011.7 |
| 20260507043235 | 7 | 90 | 0.0 | 1.6 | 0.00 | 0.00 | 0.00 | 90 | 1011.6 |
| 20260507042735 | 7 | 90 | 0.0 | 1.6 | 0.00 | 0.00 | 0.00 | 90 | 1011.6 |
| 20260507042307 | 7 | 0 | 0.0 | 1.6 | 0.00 | 0.00 | 0.00 | 90 | 1011.6 |
| 20260507041825 | 7 | 90 | 0.0 | 0.0 | 0.00 | 0.00 | 0.00 | 91 | 1011.7 |
| 20260507041345 | 7 | 90 | 0.0 | 1.6 | 0.00 | 0.00 | 0.00 | 91 | 1011.6 |
| 20260507040855 | 7 | 315 | 0.0 | 3.2 | 0.00 | 0.00 | 0.00 | 91 | 1011.6 |
| 20260507040405 | 7 | 180 | 0.0 | 1.6 | 0.00 | 0.00 | 0.00 | 91 | 1011.4 |
| 20260507035958 | 8 | 90 | 0.0 | 0.0 | 0.00 | 0.00 | 0.00 | 91 | 1011.4 |
| 20260507035515 | 8 | 90 | 0.0 | 1.6 | 0.00 | 0.00 | 0.00 | 91 | 1011.4 |
| 20260507035025 | 8 | 90 | 0.0 | 1.6 | 0.00 | 0.00 | 0.00 | 91 | 1011.4 |
| 20260507034605 | 7 | 0 | 0.0 | 1.6 | 0.00 | 0.00 | 0.00 | 91 | 1011.4 |
| 20260507034158 | 8 | 315 | 0.0 | 1.6 | 0.00 | 0.00 | 0.00 | 91 | 1011.3 |
| 20260507033758 | 7 | 0 | 0.0 | 3.2 | 0.00 | 0.00 | 0.00 | 91 | 1011.3 |
| 20260507033335 | 7 | 45 | 0.0 | 1.6 | 0.00 | 0.00 | 0.00 | 91 | 1011.2 |
| 20260507032925 | 7 | 270 | 0.0 | 1.6 | 0.00 | 0.00 | 0.00 | 91 | 1011.1 |
| 20260507032438 | 7 | 90 | 0.0 | 1.6 | 0.00 | 0.00 | 0.00 | 92 | 1011.1 |
| 20260507032030 | 8 | 270 | 0.0 | 1.6 | 0.00 | 0.00 | 0.00 | 91 | 1011.1 |
| 20260507031555 | 7 | 90 | 0.0 | 1.6 | 0.00 | 0.00 | 0.00 | 91 | 1011.1 |
| 20260507031105 | 7 | 0 | 0.0 | 1.6 | 0.00 | 0.00 | 0.00 | 91 | 1011.1 |
| 20260507030655 | 7 | 0 | 0.0 | 1.6 | 0.00 | 0.00 | 0.00 | 91 | 1011.1 |
| 20260507030225 | 7 | 270 | 0.0 | 1.6 | 0.00 | 0.00 | 0.00 | 91 | 1011.1 |
| 20260507025745 | 8 | 90 | 0.0 | 1.6 | 0.00 | 0.00 | 0.00 | 91 | 1011.1 |
| 20260507025255 | 8 | 135 | 0.0 | 3.2 | 0.00 | 0.00 | 0.00 | 91 | 1011.1 |
| 20260507024805 | 7 | 270 | 0.0 | 1.6 | 0.00 | 0.00 | 0.00 | 91 | 1011.0 |
| 20260507024325 | 7 | 180 | 0.0 | 1.6 | 0.00 | 0.00 | 0.00 | 91 | 1011.1 |
| 20260507023835 | 7 | 0 | 0.0 | 1.6 | 0.00 | 0.00 | 0.00 | 91 | 1011.0 |
| 20260507023430 | 7 | 0 | 0.0 | 1.6 | 0.00 | 0.00 | 0.00 | 91 | 1011.0 |
| 20260507023005 | 8 | 135 | 0.0 | 1.6 | 0.00 | 0.00 | 0.00 | 91 | 1011.1 |
| 20260507022538 | 8 | 90 | 0.0 | 3.2 | 0.00 | 0.00 | 0.00 | 92 | 1011.1 |
| 20260507022110 | 8 | 180 | 0.0 | 1.6 | 0.00 | 0.00 | 0.00 | 91 | 1011.0 |
| 20260507021623 | 8 | 90 | 0.0 | 3.2 | 0.00 | 0.00 | 0.00 | 92 | 1010.9 |
| 20260507021210 | 8 | 0 | 0.0 | 1.6 | 0.00 | 0.00 | 0.00 | 92 | 1010.9 |
| 20260507020738 | 8 | 90 | 0.0 | 0.0 | 0.00 | 0.00 | 0.00 | 92 | 1010.8 |
| 20260507020338 | 8 | 90 | 0.0 | 0.0 | 0.00 | 0.00 | 0.00 | 91 | 1010.8 |
| 20260507015845 | 8 | 90 | 0.0 | 1.6 | 0.00 | 0.00 | 0.00 | 91 | 1010.7 |
| 20260507015440 | 8 | 90 | 0.0 | 1.6 | 0.00 | 0.00 | 0.00 | 91 | 1010.7 |
| 20260507015010 | 8 | 0 | 0.0 | 0.0 | 0.00 | 0.00 | 0.00 | 91 | 1010.7 |
| 20260507014515 | 8 | 180 | 0.0 | 0.0 | 0.00 | 0.00 | 0.00 | 91 | 1010.7 |
| 20260507014015 | 8 | 90 | 0.0 | 1.6 | 0.00 | 0.00 | 0.00 | 91 | 1010.8 |
| 20260507013615 | 8 | 0 | 0.0 | 1.6 | 0.00 | 0.00 | 0.00 | 91 | 1010.7 |
| 20260507013205 | 8 | 0 | 0.0 | 1.6 | 0.00 | 0.00 | 0.00 | 91 | 1010.7 |
| 20260507012750 | 8 | 315 | 0.0 | 1.6 | 0.00 | 0.00 | 0.00 | 91 | 1010.7 |
| 20260507012306 | 8 | 45 | 0.0 | 1.6 | 0.00 | 0.00 | 0.00 | 91 | 1010.7 |
| 20260507011822 | 8 | 90 | 0.0 | 1.6 | 0.00 | 0.00 | 0.00 | 91 | 1010.6 |
| 20260507011340 | 8 | 315 | 0.0 | 3.2 | 0.00 | 0.00 | 0.00 | 91 | 1010.6 |
| 20260507010936 | 8 | 90 | 0.0 | 3.2 | 0.00 | 0.00 | 0.00 | 91 | 1010.5 |
| 20260507010455 | 8 | 270 | 0.0 | 1.6 | 0.00 | 0.00 | 0.00 | 91 | 1010.5 |
| 20260507010025 | 8 | 90 | 0.0 | 3.2 | 0.00 | 0.00 | 0.00 | 91 | 1010.4 |
| 20260507005615 | 8 | 90 | 0.0 | 1.6 | 0.00 | 0.00 | 0.00 | 91 | 1010.4 |
| 20260507005135 | 8 | 90 | 0.0 | 1.6 | 0.00 | 0.00 | 0.00 | 91 | 1010.4 |
| 20260507004725 | 8 | 90 | 0.0 | 0.0 | 0.00 | 0.00 | 0.00 | 91 | 1010.4 |
| 20260507004315 | 8 | 270 | 0.0 | 1.6 | 0.00 | 0.00 | 0.00 | 91 | 1010.3 |
| 20260507003855 | 8 | 90 | 0.0 | 3.2 | 0.00 | 0.00 | 0.00 | 91 | 1010.2 |
| 20260507003425 | 8 | 270 | 0.0 | 1.6 | 0.00 | 0.00 | 0.00 | 91 | 1010.2 |
| 20260507002958 | 8 | 180 | 0.0 | 1.6 | 0.00 | 0.00 | 0.00 | 91 | 1010.0 |
| 20260507002525 | 8 | 270 | 0.0 | 1.6 | 0.00 | 0.00 | 0.00 | 91 | 1009.9 |
| 20260507002035 | 8 | 135 | 0.0 | 1.6 | 0.00 | 0.00 | 0.00 | 91 | 1010.0 |
| 20260507001620 | 8 | 0 | 0.0 | 1.6 | 0.00 | 0.00 | 0.00 | 91 | 1009.9 |
| 20260507001129 | 8 | 0 | 0.0 | 1.6 | 0.00 | 0.00 | 0.00 | 91 | 1009.9 |
| 20260507000708 | 9 | 270 | 0.0 | 3.2 | 0.00 | 0.00 | 0.00 | 91 | 1009.9 |
| 20260507000306 | 9 | 0 | 0.0 | 1.6 | 0.00 | 0.00 | 0.00 | 91 | 1009.8 |
| 20260506235838 | 9 | 90 | 0.0 | 3.2 | 0.00 | 0.00 | 0.00 | 91 | 1009.9 |
| 20260506235345 | 9 | 270 | 0.0 | 3.2 | 0.00 | 0.00 | 0.00 | 92 | 1010.0 |
| 20260506234858 | 9 | 90 | 0.0 | 3.2 | 0.00 | 0.00 | 0.00 | 92 | 1009.8 |
| 20260506234410 | 9 | 270 | 0.0 | 0.0 | 0.00 | 0.00 | 0.00 | 92 | 1009.8 |
| 20260506233922 | 9 | 0 | 0.0 | 1.6 | 0.00 | 0.00 | 0.00 | 92 | 1009.8 |
| 20260506233515 | 9 | 90 | 0.0 | 1.6 | 0.00 | 0.00 | 0.00 | 92 | 1009.8 |
| 20260506233058 | 9 | 90 | 0.0 | 1.6 | 0.00 | 0.00 | 0.00 | 92 | 1009.9 |
| 20260506232558 | 9 | 45 | 0.0 | 3.2 | 0.00 | 0.00 | 0.00 | 92 | 1009.8 |
| 20260506232105 | 10 | 0 | 0.0 | 0.0 | 0.00 | 0.00 | 0.00 | 92 | 1009.9 |
| 20260506231658 | 10 | 45 | 0.0 | 1.6 | 0.00 | 0.00 | 0.00 | 92 | 1009.9 |
| 20260506231215 | 10 | 0 | 0.0 | 3.2 | 0.00 | 0.00 | 0.00 | 92 | 1009.9 |
| 20260506230748 | 10 | 0 | 0.0 | 0.0 | 0.00 | 0.00 | 0.00 | 92 | 1009.9 |
| 20260506230324 | 10 | 90 | 0.0 | 1.6 | 0.00 | 0.00 | 0.00 | 92 | 1009.8 |
| 20260506225910 | 10 | 0 | 0.0 | 1.6 | 0.00 | 0.00 | 0.00 | 92 | 1009.7 |
| 20260506225410 | 10 | 90 | 0.0 | 0.0 | 0.00 | 0.00 | 0.00 | 92 | 1009.7 |
| 20260506224945 | 10 | 0 | 0.0 | 1.6 | 0.00 | 0.00 | 0.00 | 92 | 1009.6 |
| 20260506224530 | 10 | 90 | 0.0 | 1.6 | 0.00 | 0.00 | 0.00 | 92 | 1009.5 |
| 20260506224115 | 10 | 180 | 0.0 | 0.0 | 0.00 | 0.00 | 0.00 | 92 | 1009.5 |
| 20260506223715 | 10 | 90 | 0.0 | 1.6 | 0.00 | 0.00 | 0.00 | 92 | 1009.5 |
| 20260506223255 | 10 | 90 | 0.0 | 1.6 | 0.00 | 0.00 | 0.00 | 92 | 1009.4 |
| 20260506222755 | 10 | 90 | 0.0 | 1.6 | 0.00 | 0.00 | 0.00 | 92 | 1009.4 |
| 20260506222340 | 10 | 135 | 0.0 | 0.0 | 0.00 | 0.00 | 0.00 | 92 | 1009.4 |
| 20260506221925 | 10 | 180 | 0.0 | 1.6 | 0.00 | 0.00 | 0.00 | 92 | 1009.4 |
| 20260506221450 | 10 | 90 | 0.0 | 1.6 | 0.00 | 0.00 | 0.00 | 92 | 1009.4 |
| 20260506221030 | 10 | 90 | 0.0 | 1.6 | 0.00 | 0.00 | 0.00 | 92 | 1009.4 |
| 20260506220555 | 10 | 180 | 0.0 | 3.2 | 0.00 | 1.57 | 0.00 | 92 | 1009.5 |
| 20260506220138 | 10 | 180 | 0.0 | 3.2 | 0.00 | 1.57 | 0.00 | 92 | 1009.5 |
| 20260506215650 | 10 | 0 | 0.0 | 0.0 | 0.00 | 1.57 | 0.00 | 92 | 1009.5 |
| 20260506215218 | 10 | 270 | 0.0 | 0.0 | 0.00 | 1.57 | 0.00 | 92 | 1009.5 |
| 20260506214755 | 10 | 270 | 0.0 | 0.0 | 0.00 | 1.57 | 0.00 | 92 | 1009.4 |
| 20260506214315 | 10 | 135 | 0.0 | 1.6 | 0.00 | 1.57 | 0.00 | 92 | 1009.4 |
| 20260506213910 | 10 | 90 | 0.0 | 0.0 | 0.00 | 1.57 | 0.00 | 92 | 1009.4 |
| 20260506213440 | 10 | 0 | 0.0 | 1.6 | 0.00 | 1.57 | 0.00 | 92 | 1009.3 |
| 20260506213025 | 10 | 90 | 0.0 | 0.0 | 0.00 | 1.57 | 0.00 | 92 | 1009.4 |
| 20260506212555 | 10 | 90 | 0.0 | 0.0 | 0.00 | 1.57 | 0.00 | 92 | 1009.4 |
| 20260506212125 | 10 | 90 | 0.0 | 1.6 | 0.00 | 1.57 | 0.00 | 92 | 1009.3 |
| 20260506211705 | 10 | 270 | 0.0 | 0.0 | 0.00 | 1.57 | 0.00 | 92 | 1009.3 |
| 20260506211238 | 10 | 90 | 0.0 | 1.6 | 0.00 | 1.57 | 0.00 | 92 | 1009.4 |
| 20260506210748 | 10 | 135 | 0.0 | 1.6 | 0.00 | 1.57 | 0.00 | 92 | 1009.2 |
| 20260506210255 | 10 | 135 | 0.0 | 1.6 | 0.00 | 1.57 | 0.00 | 92 | 1009.3 |
| 20260506205825 | 10 | 90 | 0.0 | 0.0 | 0.00 | 1.57 | 0.00 | 92 | 1009.2 |
| 20260506205348 | 10 | 90 | 0.0 | 1.6 | 0.00 | 1.57 | 0.00 | 92 | 1009.2 |
| 20260506204905 | 10 | 90 | 0.0 | 0.0 | 0.00 | 1.57 | 0.00 | 92 | 1009.2 |
| 20260506204438 | 10 | 270 | 0.0 | 1.6 | 0.00 | 1.57 | 0.00 | 92 | 1009.2 |
| 20260506203955 | 10 | 180 | 0.0 | 1.6 | 0.00 | 1.57 | 0.00 | 92 | 1009.2 |
| 20260506203545 | 10 | 135 | 0.0 | 3.2 | 0.00 | 1.57 | 0.00 | 92 | 1009.1 |
| 20260506203118 | 10 | 270 | 0.0 | 3.2 | 0.00 | 1.57 | 0.00 | 92 | 1008.9 |
| 20260506202708 | 10 | 90 | 0.0 | 1.6 | 0.00 | 1.57 | 0.00 | 92 | 1008.9 |
| 20260506202258 | 10 | 90 | 0.0 | 1.6 | 0.00 | 1.57 | 0.00 | 92 | 1008.8 |
| 20260506201815 | 10 | 90 | 0.0 | 0.0 | 0.00 | 1.57 | 0.00 | 92 | 1008.7 |
| 20260506201410 | 10 | 180 | 0.0 | 1.6 | 0.00 | 1.57 | 0.00 | 92 | 1008.8 |
| 20260506200941 | 10 | 90 | 0.0 | 1.6 | 0.00 | 1.57 | 0.00 | 92 | 1008.8 |
| 20260506200518 | 10 | 90 | 0.0 | 0.0 | 0.00 | 1.57 | 0.00 | 92 | 1008.8 |
| 20260506200055 | 10 | 90 | 0.0 | 0.0 | 0.00 | 1.57 | 0.00 | 92 | 1008.9 |
| 20260506195615 | 10 | 90 | 0.0 | 1.6 | 0.00 | 1.57 | 0.00 | 92 | 1008.9 |
| 20260506195128 | 10 | 90 | 0.0 | 1.6 | 0.00 | 1.57 | 0.00 | 92 | 1008.9 |
| 20260506194658 | 10 | 0 | 0.0 | 3.2 | 0.00 | 1.57 | 0.00 | 92 | 1009.0 |
| 20260506194158 | 10 | 135 | 0.0 | 1.6 | 0.00 | 1.57 | 0.00 | 92 | 1008.9 |
| 20260506193715 | 10 | 90 | 0.0 | 1.6 | 0.00 | 1.57 | 0.00 | 92 | 1008.9 |
| 20260506193218 | 10 | 90 | 0.0 | 1.6 | 0.00 | 1.57 | 0.00 | 92 | 1008.8 |
| 20260506192758 | 10 | 0 | 0.0 | 1.6 | 0.00 | 1.57 | 0.00 | 92 | 1008.7 |
| 20260506192350 | 10 | 315 | 0.0 | 1.6 | 0.00 | 1.57 | 0.00 | 92 | 1008.6 |
| 20260506191935 | 10 | 90 | 0.0 | 0.0 | 0.00 | 1.57 | 0.00 | 92 | 1008.6 |
| 20260506191525 | 10 | 90 | 0.0 | 0.0 | 0.00 | 1.57 | 0.00 | 92 | 1008.5 |
| 20260506191058 | 10 | 180 | 0.0 | 1.6 | 0.00 | 1.57 | 0.00 | 92 | 1008.5 |
| 20260506190625 | 11 | 270 | 0.0 | 3.2 | 0.00 | 1.57 | 0.00 | 92 | 1008.5 |
| 20260506190125 | 11 | 270 | 0.0 | 1.6 | 0.00 | 1.57 | 0.00 | 92 | 1008.3 |
| 20260506185718 | 11 | 90 | 0.0 | 1.6 | 0.00 | 1.57 | 0.00 | 92 | 1008.1 |
| 20260506185218 | 11 | 135 | 0.0 | 3.2 | 0.00 | 1.57 | 0.00 | 92 | 1008.0 |
| 20260506184750 | 11 | 0 | 0.0 | 1.6 | 0.00 | 1.57 | 0.00 | 92 | 1008.1 |
| 20260506184255 | 11 | 90 | 0.0 | 0.0 | 0.00 | 1.57 | 0.00 | 92 | 1008.1 |
| 20260506183820 | 11 | 90 | 0.0 | 1.6 | 0.00 | 1.57 | 0.00 | 92 | 1008.1 |
| 20260506183350 | 11 | 315 | 0.0 | 3.2 | 0.00 | 1.57 | 0.00 | 92 | 1008.1 |
| 20260506182935 | 11 | 90 | 0.0 | 1.6 | 0.00 | 1.57 | 0.00 | 92 | 1008.0 |
| 20260506182505 | 11 | 90 | 0.0 | 1.6 | 0.00 | 1.57 | 0.00 | 92 | 1008.0 |
| 20260506182058 | 11 | 90 | 0.0 | 1.6 | 0.00 | 1.57 | 0.00 | 92 | 1008.1 |
| 20260506181625 | 11 | 270 | 0.0 | 1.6 | 0.00 | 1.57 | 0.00 | 92 | 1008.1 |
| 20260506181215 | 11 | 45 | 0.0 | 3.2 | 0.00 | 1.57 | 0.00 | 92 | 1007.9 |
| 20260506180728 | 11 | 315 | 0.0 | 1.6 | 0.00 | 1.57 | 0.00 | 92 | 1007.8 |
| 20260506180255 | 11 | 315 | 0.0 | 1.6 | 0.00 | 1.57 | 0.00 | 92 | 1007.9 |
| 20260506175835 | 11 | 0 | 0.0 | 1.6 | 0.00 | 1.57 | 0.00 | 92 | 1007.9 |
| 20260506175358 | 11 | 180 | 0.0 | 0.0 | 0.00 | 1.57 | 0.00 | 91 | 1007.7 |
| 20260506174950 | 11 | 0 | 0.0 | 1.6 | 0.00 | 1.57 | 0.00 | 91 | 1007.7 |
| 20260506174458 | 11 | 90 | 0.0 | 1.6 | 0.00 | 1.57 | 0.00 | 91 | 1007.7 |
| 20260506174015 | 11 | 90 | 0.0 | 1.6 | 0.00 | 1.57 | 0.00 | 91 | 1007.6 |
| 20260506173518 | 11 | 90 | 0.0 | 3.2 | 0.00 | 1.57 | 0.00 | 91 | 1007.6 |
| 20260506173050 | 11 | 135 | 0.0 | 3.2 | 0.00 | 1.57 | 0.00 | 91 | 1007.7 |
| 20260506172635 | 11 | 270 | 0.0 | 1.6 | 0.00 | 1.57 | 0.00 | 91 | 1007.7 |
| 20260506172138 | 11 | 90 | 0.0 | 1.6 | 0.00 | 1.57 | 0.00 | 91 | 1007.7 |
| 20260506171705 | 11 | 270 | 0.0 | 1.6 | 0.00 | 1.57 | 0.00 | 91 | 1007.6 |
| 20260506171250 | 11 | 0 | 0.0 | 1.6 | 0.00 | 1.57 | 0.00 | 91 | 1007.6 |
| 20260506170830 | 12 | 270 | 0.0 | 1.6 | 0.00 | 1.57 | 0.00 | 91 | 1007.6 |
| 20260506170338 | 12 | 270 | 0.0 | 1.6 | 0.00 | 1.57 | 0.00 | 91 | 1007.4 |
| 20260506165935 | 12 | 270 | 0.0 | 1.6 | 0.00 | 1.57 | 0.00 | 91 | 1007.5 |
| 20260506165505 | 12 | 45 | 0.0 | 1.6 | 0.00 | 1.57 | 0.00 | 92 | 1007.3 |
| 20260506165010 | 12 | 225 | 0.0 | 1.6 | 0.00 | 1.57 | 0.00 | 92 | 1007.3 |
| 20260506164508 | 12 | 90 | 0.0 | 1.6 | 0.00 | 1.57 | 0.00 | 92 | 1007.3 |
| 20260506164045 | 12 | 45 | 0.0 | 1.6 | 0.00 | 1.57 | 0.00 | 92 | 1007.3 |
| 20260506163610 | 12 | 0 | 0.0 | 1.6 | 0.00 | 1.57 | 0.00 | 92 | 1007.3 |
| 20260506163210 | 12 | 90 | 0.0 | 3.2 | 0.00 | 1.57 | 0.00 | 92 | 1007.2 |
| 20260506162708 | 12 | 135 | 0.0 | 3.2 | 0.00 | 1.57 | 0.00 | 92 | 1007.3 |
| 20260506162218 | 12 | 90 | 0.0 | 3.2 | 0.00 | 1.57 | 0.00 | 92 | 1007.2 |
| 20260506161730 | 12 | 90 | 0.0 | 3.2 | 0.00 | 1.57 | 0.00 | 92 | 1007.2 |
| 20260506161250 | 12 | 90 | 0.0 | 1.6 | 0.00 | 1.57 | 0.00 | 92 | 1007.2 |
| 20260506160808 | 12 | 90 | 0.0 | 1.6 | 0.00 | 1.57 | 0.00 | 92 | 1007.3 |
| 20260506160405 | 12 | 90 | 0.0 | 1.6 | 0.00 | 1.57 | 0.00 | 92 | 1007.2 |
| 20260506155935 | 12 | 270 | 0.0 | 3.2 | 0.00 | 1.57 | 0.00 | 92 | 1007.2 |
| 20260506155438 | 12 | 0 | 0.0 | 3.2 | 0.00 | 1.57 | 0.00 | 92 | 1007.2 |
| 20260506154955 | 12 | 0 | 0.0 | 3.2 | 0.00 | 1.57 | 0.00 | 92 | 1007.3 |
| 20260506154505 | 12 | 0 | 0.0 | 3.2 | 0.00 | 1.57 | 0.00 | 92 | 1007.3 |
| 20260506154038 | 12 | 0 | 0.0 | 3.2 | 0.00 | 1.57 | 0.00 | 93 | 1007.3 |
| 20260506153627 | 12 | 135 | 0.0 | 1.6 | 0.00 | 1.57 | 0.00 | 93 | 1007.3 |
| 20260506153143 | 12 | 135 | 0.0 | 3.2 | 0.00 | 1.57 | 0.00 | 93 | 1007.3 |
| 20260506152710 | 12 | 0 | 0.0 | 1.6 | 0.00 | 1.57 | 0.00 | 93 | 1007.3 |
| 20260506152210 | 12 | 0 | 0.0 | 1.6 | 0.00 | 1.57 | 0.00 | 93 | 1007.4 |
| 20260506151728 | 12 | 0 | 0.0 | 1.6 | 0.00 | 1.57 | 0.00 | 94 | 1007.2 |
| 20260506151230 | 12 | 90 | 0.0 | 1.6 | 0.00 | 1.57 | 0.00 | 94 | 1007.3 |
| 20260506150818 | 12 | 90 | 0.0 | 1.6 | 0.00 | 1.57 | 0.00 | 94 | 1007.2 |
| 20260506150335 | 12 | 270 | 0.0 | 1.6 | 0.00 | 1.57 | 0.00 | 94 | 1007.2 |
| 20260506145840 | 12 | 90 | 0.0 | 3.2 | 0.00 | 1.57 | 0.00 | 94 | 1007.2 |
| 20260506145358 | 12 | 90 | 0.0 | 3.2 | 0.00 | 1.57 | 0.00 | 94 | 1007.3 |
| 20260506144915 | 12 | 0 | 0.0 | 3.2 | 0.00 | 1.57 | 0.00 | 94 | 1007.3 |
| 20260506144510 | 12 | 0 | 0.0 | 3.2 | 0.00 | 1.57 | 0.00 | 94 | 1007.2 |
| 20260506144045 | 12 | 0 | 0.0 | 3.2 | 0.00 | 1.57 | 0.00 | 94 | 1007.3 |
| 20260506143545 | 12 | 270 | 0.0 | 1.6 | 0.00 | 1.57 | 0.00 | 94 | 1007.2 |
| 20260506143058 | 12 | 270 | 0.0 | 3.2 | 0.00 | 1.57 | 0.00 | 94 | 1007.3 |
| 20260506142600 | 12 | 90 | 0.0 | 1.6 | 0.00 | 1.57 | 0.00 | 94 | 1007.2 |
| 20260506142125 | 12 | 90 | 0.0 | 1.6 | 0.00 | 1.57 | 0.00 | 95 | 1007.2 |
| 20260506141628 | 12 | 90 | 0.0 | 1.6 | 0.00 | 1.57 | 0.00 | 95 | 1007.3 |
| 20260506141158 | 12 | 90 | 0.0 | 0.0 | 0.00 | 1.57 | 0.00 | 95 | 1007.3 |
| 20260506140738 | 12 | 90 | 0.0 | 0.0 | 0.00 | 1.57 | 0.00 | 95 | 1007.3 |
| 20260506140310 | 12 | 90 | 0.0 | 0.0 | 0.00 | 1.57 | 0.00 | 95 | 1007.3 |
| 20260506135850 | 12 | 45 | 0.0 | 1.6 | 0.00 | 1.57 | 0.00 | 95 | 1007.4 |
| 20260506135418 | 12 | 45 | 0.0 | 1.6 | 0.00 | 1.57 | 0.00 | 95 | 1007.4 |
| 20260506134958 | 12 | 45 | 0.0 | 1.6 | 0.00 | 1.57 | 0.00 | 95 | 1007.4 |
| 20260506134555 | 12 | 270 | 0.0 | 1.6 | 0.00 | 1.57 | 0.00 | 95 | 1007.4 |
| 20260506134110 | 12 | 90 | 0.0 | 0.0 | 0.00 | 1.57 | 0.00 | 95 | 1007.4 |
| 20260506133618 | 12 | 90 | 0.0 | 0.0 | 0.00 | 1.57 | 0.00 | 95 | 1007.4 |
| 20260506133155 | 12 | 90 | 0.0 | 0.0 | 0.00 | 1.57 | 0.00 | 95 | 1007.4 |
| 20260506132658 | 12 | 90 | 0.0 | 0.0 | 0.00 | 1.57 | 0.00 | 95 | 1007.4 |
| 20260506132255 | 12 | 270 | 0.0 | 1.6 | 0.00 | 1.57 | 0.00 | 95 | 1007.3 |
| 20260506131838 | 12 | 270 | 0.0 | 1.6 | 0.00 | 1.57 | 0.00 | 95 | 1007.4 |
| 20260506131415 | 12 | 270 | 0.0 | 1.6 | 0.00 | 1.57 | 0.00 | 95 | 1007.4 |
| 20260506130935 | 12 | 270 | 0.0 | 1.6 | 0.00 | 1.57 | 0.00 | 95 | 1007.3 |
| 20260506130500 | 11 | 90 | 0.0 | 0.0 | 0.00 | 1.57 | 0.00 | 95 | 1007.4 |
| 20260506130015 | 11 | 90 | 0.0 | 0.0 | 0.00 | 1.57 | 0.00 | 95 | 1007.3 |
| 20260506125518 | 11 | 90 | 0.0 | 0.0 | 0.00 | 1.57 | 0.00 | 95 | 1007.4 |
| 20260506125105 | 11 | 0 | 0.0 | 0.0 | 0.00 | 1.57 | 0.00 | 95 | 1007.4 |
| 20260506124645 | 11 | 0 | 0.0 | 0.0 | 0.00 | 1.57 | 0.00 | 95 | 1007.4 |
| 20260506124145 | 11 | 90 | 0.0 | 1.6 | 0.00 | 1.57 | 0.00 | 95 | 1007.4 |
| 20260506123715 | 11 | 90 | 0.0 | 0.0 | 0.00 | 1.55 | 0.00 | 95 | 1007.4 |
| 20260506123255 | 11 | 90 | 0.0 | 0.0 | 0.00 | 1.55 | 0.00 | 95 | 1007.5 |
| 20260506122815 | 11 | 90 | 0.0 | 0.0 | 0.00 | 1.55 | 0.00 | 95 | 1007.5 |
| 20260506122338 | 11 | 90 | 0.0 | 1.6 | 0.00 | 1.55 | 0.00 | 95 | 1007.4 |
| 20260506121925 | 11 | 0 | 0.0 | 1.6 | 0.00 | 1.55 | 0.00 | 95 | 1007.4 |
| 20260506121515 | 11 | 0 | 0.0 | 0.0 | 0.00 | 1.55 | 0.00 | 95 | 1007.4 |
| 20260506121025 | 11 | 0 | 0.0 | 0.0 | 0.00 | 1.55 | 0.00 | 95 | 1007.4 |
| 20260506120535 | 11 | 0 | 0.0 | 0.0 | 0.00 | 1.55 | 0.00 | 95 | 1007.4 |
| 20260506120125 | 11 | 0 | 0.0 | 0.0 | 0.00 | 1.55 | 0.00 | 95 | 1007.4 |
| 20260506115650 | 11 | 0 | 0.0 | 0.0 | 0.00 | 1.55 | 0.00 | 95 | 1007.2 |
| 20260506115205 | 11 | 90 | 0.0 | 0.0 | 0.00 | 1.55 | 0.00 | 95 | 1007.3 |
| 20260506114718 | 11 | 0 | 0.0 | 0.0 | 0.00 | 1.55 | 0.00 | 95 | 1007.3 |